Air Resources Laboratory banner image
Air Resources Laboratory web site National Oceanic and Atmospheric Administration (NOAA)

md roundup


Office: LWX

ASUS41 KLWX 210911
RWRLWX

REGIONAL WEATHER ROUNDUP
NATIONAL WEATHER SERVICE BALTIMORE MD/WASHINGTON DC
500 AM EDT SUN OCT 21 2018

Note: "FAIR" indicates few or no clouds below 12,000 feet
with no significant weather and/or obstructions to visibility.
 TC=TEMPERATURE CELSIUS

 * =Non NWS site. Station does not report precipitation (e.g. rain,
    snow, etc.), thunder, or fog.

DCZ001-MDZ009-015-VAZ040>042-051-053>054-211000-
WASHINGTON METRO

CITY           SKY/WX    TMP DP  RH WIND       PRES   REMARKS
WASHINGTON NAT FAIR      50  33  52 W17G26    29.85R
DULLES         CLOUDY    45  36  70 NW20G32   29.89R
ANDREWS AFB    MOCLDY    48  33  56 W18G25    29.83R
FT BELVOIR     FAIR      46  37  71 W24G39    29.86R
QUANTICO       MOCLDY    49  35  58 NW23G37   29.89R
COLLEGE PARK*  FAIR      46  34  62 W13G28    29.83R
LEESBURG*      CLOUDY    45  39  81 NW20G31   29.89R
MANASSAS*      CLOUDY    46  36  68 NW23G32   29.90R
GAITHERSBURG*  CLOUDY    45  36  70 NW20G29   29.85R

$$

MDZ006>007-011-014-211000-
BALTIMORE METRO

CITY           SKY/WX    TMP DP  RH WIND       PRES   REMARKS
BWI AIRPORT    FAIR      47  35  63 W15G23    29.81R
MD SCIENCE CTR   N/A     49  35  58 MISG      29.82R
MARTIN STATE   FAIR      48  37  66 W15G24    29.82R
ANNAPOLIS      FAIR      52  36  54 W15G25    29.81R

$$

MDZ012-015-019>023-211000-
MARYLAND EASTERN SHORE

CITY           SKY/WX    TMP DP  RH WIND       PRES   REMARKS
OCEAN CITY     MOCLDY    51  43  74 NW10      29.77R
SALISBURY      CLOUDY    52  39  61 W22G37    29.78R
CAMBRIDGE*     CLOUDY    52  36  54 NW13G29   29.82R
EASTON*        FAIR      52  36  55 NW18G31   29.83R

$$

MDZ017>025-211000-
SOUTHERN MARYLAND

CITY           SKY/WX    TMP DP  RH WIND       PRES   REMARKS
PATUXENT RIVER MOCLDY    54  37  52 NW17G24   29.83R
ST INIGOES     MOCLDY    52  33  48 W16G30    29.83R
LEONARDTOWN*   FAIR      48  36  61 W13G20    29.86R

$$

MDZ003>005-211000-
NORTH CENTRAL MARYLAND

CITY           SKY/WX    TMP DP  RH WIND       PRES   REMARKS
FREDERICK*     CLOUDY    46  37  71 NW10G20   29.91R
HAGERSTOWN APT CLOUDY    45  34  65 NW24G36   29.89R
WESTMINSTER*   RAIN      45  37  76 NW12G29   29.83R

$$

MDZ501>502-211000-
WESTERN MARYLAND

CITY           SKY/WX    TMP DP  RH WIND       PRES   REMARKS
OAKLAND*       NOT AVBL
CUMBERLAND*    NOT AVBL

$$

VAZ025>031-211000-
SHENANDOAH VALLEY

CITY           SKY/WX    TMP DP  RH WIND       PRES   REMARKS
WINCHESTER*    FAIR      41  34  75 NW25G39   29.92R WCI  31
FRONT ROYAL*   CLOUDY    43  34  70 NW15G23   29.93R
LURAY*         MOCLDY    45  32  61 NW21G28   29.95R
NEW MARKET*    MOCLDY    43  31  62 N10G18    29.97R
STAUNTON*      CLOUDY    42  31  65 W7        30.00R
WAYNESBORO*    CLOUDY    41  31  66 NW7       29.98R

$$

WVZ021-048>050-054>055-211000-
EASTERN WEST VIRGINIA PANHANDLE

CITY           SKY/WX    TMP DP  RH WIND       PRES   REMARKS
MARTINSBURG    MOCLDY    44  35  70 NW17G29   29.91R
PETERSBURG*    FAIR      40  32  71 NW8G20    30.00R

$$

VAZ036>039-050-211000-
CENTRAL FOOTHILLS

CITY           SKY/WX    TMP DP  RH WIND       PRES   REMARKS
CHARLOTTESVILL FAIR      47  29  49 NW12G21   29.93R
CULPEPER*      CLOUDY    48  33  54 NW8       29.94R
ORANGE*        CLOUDY    45  32  61 W7G18     29.94R
GORDONSVILLE*  CLOUDY    45  32  60 SW3       29.95R
WARRENTON*     CLOUDY    48  32  53 NW10G23   29.91R

$$

VAZ055>057-211000-
NORTH AND CENTRAL PIEDMONT

CITY           SKY/WX    TMP DP  RH WIND       PRES   REMARKS
FREDERICKSBRG* MOCLDY    48  35  61 W16G31    29.89R
STAFFORD*      CLOUDY    48  35  60 NW12G18   29.94R

$$

NCZ024-NYZ072-PAZ021-071-VAZ022-071-211000-
OTHER REGIONAL OBSERVATIONS

CITY           SKY/WX    TMP DP  RH WIND       PRES   REMARKS
NEW YORK CITY  CLOUDY    49  41  74 MISG      29.70R
PHILADELPHIA   CLOUDY    49  39  68 NW15      29.75R
PITTSBURGH     CLOUDY    37  31  78 NW20G25   30.05R WCI  27
ROANOKE        MOCLDY    43  27  53 N10G18    30.06R
RICHMOND       FAIR      48  31  51 W18       29.92R
RALEIGH        FAIR      48  27  44 VRB7G18   30.02R

$$

ANZ530>537-211000-
MARINE OBSERVATIONS

STATION/POSITION TIME  TEMP    WIND        PRES
                       AIR SEA DIR/SP/G
                 (UTC) (F)     (DEG/KT/KT) (MB)
THOMAS PT LIGHT  0900   50 65  280/ 22/ 25 1010.2R
BALT KEY BRIDGE  0842   51     280/ 22/ 28 1008.5R
COVE POINT       0842   51     330/ 18/ 26 1010.4R
LEWISETTA        0842   51 63  300/ 17/ 21 1010.5R
SOLOMONS ISLAND  0842   51 67  290/  7/ 17 1010.1R
PINEY POINT      0842          330/ 34/ 38   N/A

$$





Office: PHI ASUS41 KPHI 210913 RWRPHI REGIONAL WEATHER ROUNDUP NATIONAL WEATHER SERVICE MOUNT HOLLY NJ 500 AM EDT SUN OCT 21 2018 NOTE: "FAIR" INDICATES FEW OR NO CLOUDS BELOW 12,000 FEET WITH NO SIGNIFICANT WEATHER AND/OR OBSTRUCTIONS TO VISIBILITY. * = STATION DOES NOT REPORT PRECIPITATION (E.G. RAIN, SNOW, ETC.) OR FOG. NJZ015>026-211000- SOUTHERN NEW JERSEY CITY SKY/WX TMP DP RH WIND PRES REMARKS POMONA FAIR 50 42 74 W16 29.70R WILDWOOD* CLOUDY 53 40 61 W20G26 29.74R MILLVILLE MOCLDY 50 39 66 W14 29.74R WRIGHTSTOWN CLOUDY 48 41 78 NW9 29.68R MOUNT HOLLY MOCLDY 48 41 76 NW7G22 29.72R TRENTON CLOUDY 47 41 80 NW9 29.70R $$ NJZ001>014-211000- NORTHERN NEW JERSEY CITY SKY/WX TMP DP RH WIND PRES REMARKS SUSSEX CLOUDY 45 39 79 VRB6 29.70R ANDOVER* N/A 44 38 79 VRB5 29.71R MORRISTOWN CLOUDY 46 39 76 NW10 29.69R NEWARK CLOUDY 48 41 76 NW16 29.68R TETERBORO CLOUDY 48 42 80 NW10 29.67R CALDWELL CLOUDY 47 40 76 VRB7 29.69R SOMERVILLE MOCLDY 47 40 76 NW8 29.69R ALLAIRE* CLOUDY 47 42 83 NW14 29.68R TOMS RIVER* MOCLDY 47 42 83 NW12G20 29.69R $$ PAZ043-044-047-054-055-060>062-066>071-211000- EASTERN PENNSYLVANIA CITY SKY/WX TMP DP RH WIND PRES REMARKS PHILADELPHIA CLOUDY 49 39 68 NW15 29.75R NORTH PHILA FAIR 49 40 71 NW12 29.74R BLUE BELL* MOCLDY 45 39 81 NW7 29.76R DOYLESTOWN CLOUDY 45 39 79 NW8 29.72R QUAKERTOWN* CLOUDY 45 39 81 VRB5 29.75R PERKASIE* CLOUDY 43 41 93 NW6 29.75R POTTSTOWN CLOUDY 45 40 82 NW9 29.77R LANCASTER LGT RAIN 46 41 82 NW15 29.79R COATESVILLE LGT RAIN 43 41 93 NW16 29.77R READING CLOUDY 47 43 86 NW10 29.77R ALLENTOWN FAIR 46 37 71 NW10 29.74R MOUNT POCONO CLOUDY 38 37 97 NW18G26 29.70R WCI 28 HAZLETON CLOUDY 41 36 81 NW10 29.78R LEHIGHTON CLOUDY 45 37 76 W5 29.77R WILKES BARRE CLOUDY 42 39 89 N9 29.77R $$ DEZALL-MDZ008-012-015-019-020-211000- DELAWARE AND EASTERN MARYLAND CITY SKY/WX TMP DP RH WIND PRES REMARKS WILMINGTON CLOUDY 50 38 63 NW13G23 29.76R DOVER MOCLDY 51 38 61 W16G30 29.75R GEORGETOWN FAIR 52 38 58 NW13G26 29.77R EASTON FAIR 51 36 56 NW15G26 29.85R PATUXENT MOCLDY 54 37 52 NW17G24 29.83 OCEAN CITY MOCLDY 51 43 74 NW10 29.77R WALLOPS ISLAND CLOUDY 53 37 54 NW17G25 29.79R CAMBRIDGE CLOUDY 52 36 54 NW13G29 29.82R SALISBURY CLOUDY 52 39 61 W22G37 29.78R $$ PAZ001-021-NYZ056-072-MDZ011-DCZ001-211000- OTHER NEARBY LOCATIONS CITY SKY/WX TMP DP RH WIND PRES REMARKS HARRISBURG LGT RAIN 45 40 82 NW20G31 29.82R STATE COLLEGE CLOUDY 38 33 82 N15G21 29.90R WCI 29 WILLIAMSPORT CLOUDY 42 34 73 NW18G26 29.86R BINGHAMTON CLOUDY 35 29 78 N16G24 29.79R WCI 25 NEW YORK CITY CLOUDY 49 41 74 MISG 29.70 BALTIMORE FAIR 47 35 63 W15G23 29.81R WASHINGTON DC FAIR 50 33 52 W17G26 29.85R $$
Office: AKQ ASUS41 KAKQ 210915 RWRAKQ REGIONAL WEATHER ROUNDUP NATIONAL WEATHER SERVICE WAKEFIELD VA 500 AM EDT SUN OCT 21 2018 Note: "fair" indicates few or no clouds below 12,000 feet with no significant weather and/or obstructions to visibility. * = Denotes station may not report precipitation (e.g., rain,snow,etc.), thunder or fog. VAZ042-051-052>054-056-211000- NORTHERN VIRGINIA CITY SKY/WX TMP DP RH WIND PRES REMARKS WASH NATIONAL FAIR 50 33 52 W17G26 29.85R DULLES CLOUDY 45 36 70 NW20G32 29.89R FORT BELVOIR FAIR 46 37 71 W24G39 29.86R QUANTICO MOCLDY 49 35 58 NW23G37 29.89R FREDERICKSBRG* MOCLDY 48 35 61 W16G31 29.89R STAFFORD* CLOUDY 48 35 60 NW12G18 29.94R WARRENTON CLOUDY 48 32 53 NW10G23 29.91R CULPEPER* CLOUDY 48 33 54 NW8 29.94R MANASSAS* CLOUDY 46 36 68 NW23G32 29.90R LEESBURG* CLOUDY 45 39 81 NW20G31 29.89R WINCHESTER FAIR 41 34 75 NW25G39 29.92R FRONT ROYAL* CLOUDY 43 34 70 NW15G23 29.93R LURAY* PTSUNNY 45 32 61 NW21G28 29.95R $$ VAZ048-049-060>072-079>083-211000- CENTRAL AND SOUTH CENTRAL VIRGINIA CITY SKY/WX TMP DP RH WIND PRES REMARKS RICHMOND FAIR 48 31 51 W18 29.92R CHESTERFIELD* FAIR 47 32 56 W17G23 29.93R PETERSBURG* FAIR 47 29 48 W14 29.95R HANOVER FAIR 47 32 56 W17G25 29.93R TAPPAHANNOCK* FAIR 47 36 64 W8G18 29.89R QUINTON* FAIR 47 32 55 W15G28 29.91R CHARLOTTSVILLE FAIR 47 29 49 NW12G21 29.93R GORDONSVILLE* CLOUDY 45 32 60 SW3 29.95R ORANGE* CLOUDY 45 32 61 W7G18 29.94R LOUISA* FAIR 43 31 64 W10 29.98R BUMPASS* FAIR 44 31 60 W5 29.92R FARMVILLE* NOT AVBL CREWE* FAIR 44 26 48 NW12G18 29.96R FORT PICKETT* FAIR 45 29 52 W12G20 29.96R CHASE CITY* FAIR 44 29 56 W5 29.99R CLARKSVILLE* FAIR 45 30 57 NW8G16 30.00R SOUTH HILL* FAIR 46 31 55 W8 30.03R LAWRENCEVILLE* FAIR 47 28 48 MISG 29.96R EMPORIA* NOT AVBL $$ VAZ088>098-211000- SOUTHEAST VIRGINIA CITY SKY/WX TMP DP RH WIND PRES REMARKS NORFOLK CLOUDY 54 35 48 NW14G33 29.87R VIRGINIA BEACH MOCLDY 52 35 52 NW25G37 29.85R NORFOLK NAVAL MOCLDY 53 35 50 NW31G40 29.89R WEST POINT* FAIR 49 35 58 W17G30 29.90R SALUDA* CLOUDY 50 38 62 W14G24 29.86R NEWPORT NEWS FAIR 51 34 52 NW20G35 29.88R LANGLEY AFB FAIR 51 37 58 NW20G31 29.87R FORT EUSTIS FAIR 51 36 56 NW26G40 29.86R WILLIAMSBURG* MOCLDY 52 34 50 NW18G29 29.90R HR EXEC AP* PTSUNNY 50 39 66 W8G16 29.89R FRANKLIN* FAIR 49 42 77 NW13 29.92R US460-WAKEFLD FAIR 50 36 58 W9G18 29.92R $$ VAZ020-022-025-037-045-211000- WEST CENTRAL AND SOUTHWEST VIRGINIA CITY SKY/WX TMP DP RH WIND PRES REMARKS STAUNTON* CLOUDY 42 31 65 W7 30.00R WAYNESBORO* CLOUDY 41 31 66 NW7 29.98R HOT SPRINGS VA CLOUDY 32 31 98 NW18G35 29.94R WCI 20 LYNCHBURG FAIR 43 26 51 NW6 30.01R DANVILLE FAIR 44 27 51 N7G18 30.05R SOUTH BOSTON* FAIR 45 25 46 NW14G23 30.02R MARTINSVILLE FAIR 43 27 52 NW13G20 30.09R ROANOKE MOCLDY 43 27 53 N10G18 30.06R BLACKSBURG CLOUDY 38 28 66 NW16G30 30.08S DUBLIN* CLOUDY 38 29 68 NW21G33 30.07S MARION* CLOUDY 37 29 73 NW15G31 30.10F HILLSVILLE* CLOUDY 35 25 66 NW20G31 30.01S WCI 24 RICHLANDS* CLOUDY 33 26 75 NW9 30.14R WISE* CLOUDY 34 30 86 N8 30.17R ABINGDON* CLOUDY 38 28 64 N13G21 30.16S $$ MDZ021>025-VAZ099-100-211000- SOUTHERN MARYLAND AND THE DELMARVA PENINSULA CITY SKY/WX TMP DP RH WIND PRES REMARKS PATUXENT RIVER MOCLDY 54 37 52 NW17G24 29.83R BAY BRIDGE APT NOT AVBL LEONARDTOWN FAIR 48 36 61 W13G20 29.86R DOVER MOCLDY 51 38 61 W16G30 29.75R GEORGETOWN FAIR 52 38 58 NW13G26 29.77R EASTON FAIR 52 36 55 NW18G31 29.83R CAMBRIDGE CLOUDY 52 36 54 NW13G29 29.82R SALISBURY CLOUDY 52 39 61 W22G37 29.78R TANGIER CLOUDY 54 41 62 W33G41 29.82R OCEAN CITY MOCLDY 51 43 74 NW10 29.77R WALLOPS ISLAND CLOUDY 53 37 54 NW17G25 29.79R ACCOMACK* CLOUDY 53 38 55 NW24G36 29.82R $$ NCZ012>017-030>032-211000- NORTH CENTRAL AND EASTERN NORTH CAROLINA CITY SKY/WX TMP DP RH WIND PRES REMARKS ROANOKE RAPIDS FAIR 48 32 53 NW21G29 29.96R RALEIGH FAIR 48 27 44 VRB7G18 30.02R ELIZABETH CITY FAIR 53 43 68 NW16G28 29.85R AHOSKIE* FAIR 51 38 61 NW9G21 29.93R EDENTON* FAIR 55 44 66 N13G24 29.89R CURRITUCK* FAIR 52 44 74 MISG 29.85R KILL DEVIL HLS FAIR 56 46 69 NW9G20 29.83R MANTEO FAIR 56 46 69 N18G28 29.85R CAPE HATTERAS FAIR 63 47 55 NW17G32 29.82R TARBORO* FAIR 52 33 47 NW18G32 29.95R GOLDSBORO FAIR 54 32 44 NW17G28 29.95R WASHINGTON FAIR 56 40 54 NW14G22 29.90R GREENVILLE FAIR 54 32 43 NW12G29 29.96R NEW BERN FAIR 57 43 59 NW13G25 29.90R WILMINGTON FAIR 59 46 62 NW13G18 29.91R $$ VAZ048-211000- ELSEWHERE CITY SKY/WX TMP DP RH WIND PRES REMARKS HARRISBURG PA LGT RAIN 45 40 82 NW20G31 29.82R BALTIMORE FAIR 47 35 63 W15G23 29.81R ANNAPOLIS FAIR 52 36 54 W15G25 29.81R ANDREWS AFB MOCLDY 48 33 56 W18G25 29.83R PHILADELPHIA CLOUDY 49 39 68 NW15 29.75R HENDERSON NC FAIR 42 26 52 NW7G18 30.01R GREENSBORO FAIR 45 25 45 VRB5 30.04R ROCKY MOUNT FAIR 50 31 48 NW20G35 29.98R $$ VAZ100-211000- MARINE STATION/POSITION TIME TEMP WIND PRES WAVE SWELL AIR SEA DIR/SP/G HT/PER HT/PER (UTC) (F) (DEG/KT/KT) (MB) (FT/S) (FT/S) BRANDYWINE LGT 0842 55 310/ 29/ 40 1006.9R CAPE MAY NJ 0842 54 61 300/ 16/ 27 1005.9R LEWES DE 0842 53 66 300/ 27/ 33 1007.0R 15NM E FENWICK I 0850 67 1006.0R 5/ 6 2/ 9 OCEAN-CITY-INLET 0842 53 66 310/ 12/ 16 1007.9R WACHAPREAGUE VA 0842 53 61 270/ 5/ 15 1009.2R THOMAS POINT MD 0900 50 65 280/ 22/ 25 1010.2R GOOSES REEF MD 0900 53 66 320/ 21/ 29 1010.3 COVE POINT MD 0842 51 330/ 18/ 26 1010.4R SOLOMONS ISLAND 0842 51 67 290/ 7/ 17 1010.1R BISHOPS HEAD MD 0842 53 58 310/ 26/ 35 1010.3R PINEY POINT MD 0842 330/ 34/ 38 N/A POTOMAC MD 0900 54 68 290/ 27/ 33 1010.0 CAMBRIDGE MD 0842 52 63 1010.3R LEWISETTA VA 0842 51 63 300/ 17/ 21 1010.5R RAPPAHANNOCK LGT 0842 290/ 33/ 40 1010.1R STINGRAY PT 0900 54 67 310/ 27/ 37 1011.5 3/ 3 YORK RVR RNG VA 0842 54 310/ 27/ 33 1010.8R YORKTOWN VA 0842 54 69 300/ 21/ 29 1010.9R DOMINION TERM VA 0842 55 320/ 31/ 36 1011.0S KIPTOPEKE VA 0842 66 320/ 30/ 36 N/A CAPE HENRY VA 0842 56 290/ 26/ 34 1008.8R WILLOUBY STN VA 0842 54 310/ 29/ 39 1010.6R S CRANEY ISL VA 0842 54 310/ 16/ 24 1010.9R CAPE HENRY BUOY 0900 71 N/A 7/ 5 1ST LANDING BUOY 0850 56 320/ 29/ 37 1010.1R 64NM E OF VA BCH 0850 60 69 320/ 29/ 35 1007.6R 8/ 6 DUCK PIER NC 0842 57 71 340/ 31/ 35 1008.8R 44100 DUCK FRF 0845 71 N/A 6/25 3/25 44056 DUCK FRF 0900 72 N/A 4/ 5 OREGON INLET NC 0842 59 66 310/ 21/ 29 1009.3R HATTERAS NC 0842 63 69 310/ 25/ 30 1009.4R DIAMOND SHLS NC 0900 67 310/ 29/ 37 1010.1 CAPE LOOKOUT NC 0900 320/ 25/ 34 1011.4R $$